Satellite-Ground Cal/Val Region Overpasses Predictions

Prediction of Satellite NPP Overpassing Cal/Val Region: PacNW

Region Location: (Latitude: 10.00, Longitude: 139.50) to (Latitude: 22.70, Longitude: 165.60).

Table of predicted overpasses for the next 14.0 days since TLE Epoch: 5/29/2015
Interval Starting Time Starting Location Ending Time Ending Location
1 05/29/2015 15:28:37 ( 22.65, 153.94) 05/29/2015 15:32:12 ( 10.02, 150.94)
2 05/30/2015 02:37:42 ( 10.04, 161.48) 05/30/2015 02:41:17 ( 22.66, 158.49)
3 05/30/2015 15:09:34 ( 22.67, 158.70) 05/30/2015 15:13:09 ( 10.04, 155.70)
4 05/31/2015 02:19:27 ( 12.84, 165.60) 05/31/2015 02:22:15 ( 22.70, 163.24)
5 05/31/2015 04:00:09 ( 10.02, 140.87) 05/31/2015 04:01:49 ( 15.90, 139.51)
6 05/31/2015 14:50:32 ( 22.69, 163.46) 05/31/2015 14:54:08 ( 10.00, 160.45)
7 06/01/2015 03:41:07 ( 10.00, 145.63) 06/01/2015 03:44:43 ( 22.68, 142.62)
8 06/01/2015 14:34:37 ( 11.67, 165.59) 06/01/2015 14:35:05 ( 10.03, 165.21)
9 06/01/2015 16:13:00 ( 22.64, 142.83) 06/01/2015 16:16:35 ( 10.02, 139.83)
10 06/02/2015 03:22:05 ( 10.04, 150.38) 06/02/2015 03:25:40 ( 22.66, 147.38)
11 06/02/2015 15:53:58 ( 22.66, 147.59) 06/02/2015 15:57:33 ( 10.04, 144.59)
12 06/03/2015 03:03:03 ( 10.02, 155.13) 06/03/2015 03:06:38 ( 22.64, 152.14)
13 06/03/2015 15:34:55 ( 22.68, 152.35) 06/03/2015 15:38:30 ( 10.06, 149.35)
14 06/04/2015 02:44:01 ( 10.06, 159.88) 06/04/2015 02:47:36 ( 22.68, 156.89)
15 06/04/2015 15:15:54 ( 22.64, 157.10) 06/04/2015 15:19:29 ( 10.02, 154.10)
16 06/05/2015 02:24:59 ( 10.04, 164.64) 06/05/2015 02:28:34 ( 22.66, 161.65)
17 06/05/2015 14:56:52 ( 22.66, 161.86) 06/05/2015 15:00:27 ( 10.04, 158.86)
18 06/06/2015 03:47:26 ( 10.03, 144.02) 06/06/2015 03:51:01 ( 22.65, 141.03)
19 06/06/2015 14:39:00 ( 18.51, 165.59) 06/06/2015 14:41:24 ( 10.06, 163.62)
20 06/06/2015 16:19:19 ( 22.67, 141.24) 06/06/2015 16:21:21 ( 15.51, 139.51)
21 06/07/2015 03:28:24 ( 10.01, 148.78) 06/07/2015 03:32:00 ( 22.69, 145.77)
22 06/07/2015 16:00:17 ( 22.69, 146.00) 06/07/2015 16:03:53 ( 10.01, 142.99)
23
